Regional Weather Roundup
Issued by NWS Upton, NY

Current Version | Previous Version | Graphics & Text | Print | Product List | Glossary Off
Versions: 1 2 3 4 5 6 7 8 9 10 11 12 13 14 15 16 17 18 19 20 21 22 23 24 25 26 27

000
ASUS41 KOKX 041702
RWROKX

REGIONAL WEATHER ROUNDUP
NATIONAL WEATHER SERVICE NEW YORK NY
100 PM EDT WED MAY 04 2016

NOTE: "FAIR" INDICATES FEW OR NO CLOUDS BELOW 12,000 FEET WITH NO
SIGNIFICANT WEATHER AND/OR OBSTRUCTIONS TO VISIBILITY.

NYZ071-072-176-178-NJZ106-104-041800-
NEW YORK CITY METRO AREA


CITY           SKY/WX    TMP DP  RH WIND       PRES   REMARKS
CENTRAL PARK   CLOUDY    50  44  80 E14G24    29.79F
LAGUARDIA APRT CLOUDY    51  47  86 NE17      29.77F
KENNEDY INTL   CLOUDY    53  47  79 E13       29.77F
NEWARK/LIBERTY DRIZZLE   54  49  83 NE9       29.77S
BRNX BOT. GARD   N/A     48  43  81 SE9       29.78S
TETERBORO      CLOUDY    50  43  77 E8G20     29.77S
$$

NYZ177-179-078>081-041800-
LONG ISLAND NEW YORK

CITY           SKY/WX    TMP DP  RH WIND       PRES   REMARKS
FARMINGDALE    CLOUDY    51  46  83 NE12      29.76F
ISLIP          LGT RAIN  49  46  90 E10       29.77F
SHIRLEY        LGT RAIN  48  45  89 E7G17     29.79F FOG
RIVERHEAD        N/A     48  46  93 NE3       29.79F
WESTHAMPTON    LGT RAIN  44  44 100 E12G24    29.81F FOG
EAST HAMPTON   CLOUDY    49  43  81 NE12      29.81S
MONTAUK POINT    N/A     50  43  77 NE12G20   29.82F
$$

NYZ052-065-067-041800-
HUDSON VALLEY

CITY           SKY/WX    TMP DP  RH WIND       PRES   REMARKS
WHITE PLAINS   PTSUNNY   49  44  83 E13G22    29.77F HAZE
NEWBURGH       CLOUDY    48  46  93 NE9       29.79F
MONTGOMERY     CLOUDY    49  46  90 NE8       29.78F
POUGHKEEPSIE   CLOUDY    52  46  80 N7        29.79F
ALBANY         LGT RAIN  50  46  86 S5        29.82S
$$

NJZ001-105-106-008-010-013-015-019>022-104-041800-
NEW JERSEY

CITY           SKY/WX    TMP DP  RH WIND       PRES   REMARKS
NEWARK/LIBERTY DRIZZLE   54  49  83 NE9       29.77S
TETERBORO      CLOUDY    50  43  77 E8G20     29.77S
CALDWELL       LGT RAIN  49  45  86 E12G20    29.78F FOG
MORRISTOWN     CLOUDY    50  48  93 E14       29.78S
SOMERVILLE     CLOUDY    52  47  83 VRB5      29.75S
SUSSEX         CLOUDY    50  45  83 E6        29.77F
ANDOVER          N/A     50  47  89 CALM      29.76F
TRENTON        CLOUDY    51  47  86 E9        29.75S FOG
MILLVILLE      LGT RAIN  52  50  93 NE12      29.70F
ATLANTIC CITY  LGT RAIN  49  48  97 E15       29.71F FOG
WRIGHTSTOWN    CLOUDY    50  48  93 NE13      29.73F
TOMS RIVER     CLOUDY    48  45  87 NE13      29.74F
BELMAR         CLOUDY    48  46  93 NE16G23   29.75F
$$

PAZ047>061-062-071-041800-
EASTERN PENNSYLVANIA

CITY           SKY/WX    TMP DP  RH WIND       PRES   REMARKS
PHILADELPHIA   CLOUDY    53  47  79 E13       29.74S
ALLENTOWN      CLOUDY    52  48  86 E9        29.75F FOG
SCRANTON       RAIN      51  48  89 CALM      29.74S FOG
$$

CTZ002-004>006-009-010-012-RIZ004-006-007-MAZ004-011-015-041800-
SOUTHERN NEW ENGLAND
 IN CT

CITY           SKY/WX    TMP DP  RH WIND       PRES   REMARKS
BRADLEY INTL   CLOUDY    51  42  71 E9        29.82F
HARTFORD       CLOUDY    53  43  68 NE10      29.82F
DANBURY        CLOUDY    50  42  74 E8        29.79F
WTRBRY/OXFORD  CLOUDY    48  39  71 E8        29.81F
BRIDGEPORT     CLOUDY    50  44  80 E20G25    29.79F
MERIDEN        CLOUDY    52  42  69 E9        29.81F
NEW HAVEN      LGT RAIN  50  45  83 E10G17    29.80F
CHESTER        LGT RAIN  50  45  81 E8        29.80F
GROTON         CLOUDY    52  49  89 E10       29.81F
WILLIMANTIC    CLOUDY    52  41  66 NE10      29.83S

 IN RI

CITY           SKY/WX    TMP DP  RH WIND       PRES   REMARKS
PROVIDENCE     CLOUDY    52  41  66 NE14      29.85F
BLOCK ISLAND   CLOUDY    48  43  82 E16G22    29.81F
WESTERLY       CLOUDY    53  41  63 NE12      29.82S

 IN MA

CITY           SKY/WX    TMP DP  RH WIND       PRES   REMARKS
BOSTON         CLOUDY    48  42  80 E13       29.90S
WORCESTER      CLOUDY    46  39  76 E10       29.84F
WESTFIELD      CLOUDY    48  44  86 NE7       29.83F
PROVINCETOWN   CLOUDY    48  42  80 NE13      29.88F
NANTUCKET      CLOUDY    48  43  82 NE21G28   29.82F
$$

ANZ330-335-338-340-345-350-353-355-041800-
COASTAL MARINE OBSERVATIONS


STATION/POSITION TIME  SKY/WX   TEMP    WIND        PRES    VSBY  WAVE
                                AIR SEA DIR/SP/G                  HT/PER
                 (UTC)          (F)     (DEG/KT/KT) (MB)    (MI)  (FT/S)
NY HARB ENTRANCE 1550            48 50   70/ 21/ 25 1007.3          4/ 6
20S FIRE ISLAND  1550            47 48   60/ 17/ 21 1007.8          5/ 5
GREAT SOUTH BAY  1600            49 55   90/ 19/ 23   N/A
23 SSW MONTAUK P 1650            47 47   70/ 21/ 25 1007.7          6/ 5
15 E BARNEGAT LI 1622               50                N/A           5/ 6
HUDSON CANYON    1550            50 49              1006.1          6/ 7
KINGS POINT      1600            49 53              1008.3
EXECUTION ROCKS  NOT AVBL
CENTRAL LI SOUND 1600            48      90/ 17/ 21   N/A           2/ 4
EASTERN LI SOUND 1600            49 47   90/ 16/ 21   N/A
ROBBINS REEF     1600            51      60/ 15/ 17 1007.1
$$


>>>>>>>>>>>>>>>>>>>>>>>>>>>> KEY <<<<<<<<<<<<<<<<<<<<<<<<<<<
>                                                          <
>     SKY/WX - SKY CONDITION/PRESENT WEATHER               <
>     TMP    - TEMPERATURE IN FAHRENHEIT                   <
>     DP     - DEWPOINT IN FAHRENHEIT                      <
>     RH     - RELATIVE HUMIDITY IN PERCENT                <
>     WIND   - DIRECTION AND SPEED IN MPH                  <
>     PRES   - MEAN SEA LEVEL PRESSURE IN INCHES OF HG     <
>     WCI    - WIND CHILL INDEX                            <
>     VSB    - VISIBILITY IN MILES                         <
>     HX     - HEAT INDEX                                  <
>     TC     - TEMPERATURE IN CELSIUS                      <
>     VRB    - VARIABLE WIND DIRECTION                     <
>                                                          <
>>>>>>>>>>>>>>>>>>>>>>>>>>>> KEY <<<<<<<<<<<<<<<<<<<<<<<<<<<






USA.gov is the U.S. government's official web portal to all federal, state and local government web resources and services.